Walhalla, ND

3:40 AM CDT on May 30, 2017 (GMT -0500)
Walhalla

Weather History for K96D - May, 2013

Change the Weather History Date:

Tuesday, May 7, 2013

  Actual Average (KGAF) Record (KGAF)
Temperature  
Mean Temperature 60 °F -  
Max Temperature 73 °F 65 °F 90 °F (1953)
Min Temperature 46 °F 40 °F 21 °F (1976)
Degree Days  
Heating Degree Days 6    
Growing Degree Days 10 (Base 50)    
Moisture  
Dew Point 43 °F    
Average Humidity 51    
Maximum Humidity 77    
Minimum Humidity 33    
Precipitation  
Precipitation 0.00 in - - ()
Sea Level Pressure  
Sea Level Pressure 29.92 in    
Wind  
Wind Speed 6 mph (SW)    
Max Wind Speed 14 mph    
Max Gust Speed 24 mph    
Visibility 10 miles    
Events      
Averages and records for this station are not official NWS values.
T = Trace of Precipitation, MM = Missing Value Source: NWS Daily Summary

Daily Weather History Graph

Daily Weather History Graph

Search for Another Location

Airport or City:

Trip Planner

Search our weather history database for the weather conditions in past years. The results will help you decide how hot, cold, wet, or windy it might be!

Date:

Astronomy

May. 07, 2013 Rise Set
Actual Time 6:00 AM CDT 8:56 PM CDT
Civil Twilight 5:24 AM CDT 9:33 PM CDT
Nautical Twilight 4:36 AM CDT 10:20 PM CDT
Astronomical Twilight 3:39 AM CDT 11:19 PM CDT
Moon 4:47 AM CDT (5/7) 6:48 PM CDT (5/7)
Length of Visible Light 16h 09m
Length of Day
14h 55m
Waning Crescent, 5% of the Moon is Illuminated
May 7
Waning Crescent
May 9
New
May 17
First Quarter
May 24
Full
May 31
Last Quarter

Hourly Weather History & Observations

Time (CDT) Temp. Windchill Dew Point Humidity Pressure Visibility Wind Dir Wind Speed Gust Speed Precip Events Conditions
12:15 AM 55.4 °F - 37.4 °F 51% 29.98 in 10.0 mi SW 3.5 mph - N/A   Clear
12:35 AM 55.4 °F - 37.4 °F 51% 29.98 in 10.0 mi WSW 4.6 mph - N/A   Clear
12:55 AM 55.4 °F - 37.4 °F 51% 29.98 in 10.0 mi SW 4.6 mph - N/A   Partly Cloudy
1:15 AM 55.4 °F - 37.4 °F 51% 29.98 in 10.0 mi SW 3.5 mph - N/A   Partly Cloudy
1:35 AM 53.6 °F - 35.6 °F 51% 29.97 in 10.0 mi SSW 3.5 mph - N/A   Partly Cloudy
1:55 AM 53.6 °F - 35.6 °F 51% 29.97 in 10.0 mi SSW 5.8 mph - N/A   Partly Cloudy
2:15 AM 55.4 °F - 35.6 °F 47% 29.97 in 10.0 mi SW 6.9 mph - N/A   Scattered Clouds
2:35 AM 55.4 °F - 37.4 °F 51% 29.97 in 10.0 mi SSW 4.6 mph - N/A   Mostly Cloudy
2:55 AM 53.6 °F - 39.2 °F 58% 29.97 in 10.0 mi SW 3.5 mph - N/A   Mostly Cloudy
3:15 AM 53.6 °F - 41.0 °F 62% 29.97 in 10.0 mi SSW 3.5 mph - N/A   Mostly Cloudy
3:35 AM 53.6 °F - 41.0 °F 62% 29.97 in 10.0 mi SSW 4.6 mph - N/A   Mostly Cloudy
3:55 AM 53.6 °F - 41.0 °F 62% 29.96 in 10.0 mi SW 6.9 mph - N/A   Mostly Cloudy
4:15 AM 53.6 °F - 39.2 °F 58% 29.97 in 10.0 mi SW 4.6 mph - N/A   Mostly Cloudy
4:35 AM 50.0 °F - 39.2 °F 66% 29.97 in 10.0 mi SW 4.6 mph - N/A   Scattered Clouds
5:15 AM 50.0 °F - 39.2 °F 66% 29.96 in 10.0 mi WSW 3.5 mph - N/A   Partly Cloudy
5:35 AM 48.2 °F - 39.2 °F 71% 29.96 in 10.0 mi SSW 4.6 mph - N/A   Partly Cloudy
5:55 AM 48.2 °F - 39.2 °F 71% 29.96 in 10.0 mi SW 4.6 mph - N/A   Clear
6:15 AM 46.4 °F 45.2 °F 39.2 °F 76% 29.97 in 10.0 mi SW 3.5 mph - N/A   Clear
6:35 AM 46.4 °F 44.3 °F 37.4 °F 71% 29.97 in 10.0 mi SW 4.6 mph - N/A   Clear
6:55 AM 48.2 °F - 37.4 °F 66% 29.96 in 10.0 mi WSW 4.6 mph - N/A   Clear
7:15 AM 48.2 °F - 39.2 °F 71% 29.96 in 10.0 mi SW 3.5 mph - N/A   Clear
7:35 AM 53.6 °F - 39.2 °F 58% 29.96 in 10.0 mi SW 3.5 mph - N/A   Clear
7:55 AM 55.4 °F - 41.0 °F 58% 29.97 in 10.0 mi WSW 3.5 mph - N/A   Clear
8:15 AM 57.2 °F - 42.8 °F 59% 29.96 in 10.0 mi WSW 5.8 mph - N/A   Clear
8:35 AM 59.0 °F - 44.6 °F 59% 29.96 in 10.0 mi SSW 3.5 mph - N/A   Clear
8:55 AM 60.8 °F - 44.6 °F 55% 29.96 in 10.0 mi Calm Calm - N/A   Clear
9:15 AM 64.4 °F - 44.6 °F 49% 29.96 in 10.0 mi SSE 5.8 mph - N/A   Clear
9:35 AM 64.4 °F - 44.6 °F 49% 29.95 in 10.0 mi South 6.9 mph - N/A   Clear
9:55 AM 66.2 °F - 44.6 °F 46% 29.95 in 10.0 mi South 8.1 mph - N/A   Clear
10:15 AM 66.2 °F - 44.6 °F 46% 29.95 in 10.0 mi SSW 6.9 mph - N/A   Clear
10:35 AM 68.0 °F - 46.4 °F 46% 29.94 in 10.0 mi SSW 9.2 mph - N/A   Clear
10:55 AM 68.0 °F - 46.4 °F 46% 29.94 in 10.0 mi South 10.4 mph - N/A   Clear
11:15 AM 68.0 °F - 44.6 °F 43% 29.94 in 10.0 mi South 10.4 mph - N/A   Clear
11:35 AM 69.8 °F - 44.6 °F 40% 29.93 in 10.0 mi South 10.4 mph - N/A   Clear
11:55 AM 69.8 °F - 46.4 °F 43% 29.93 in 10.0 mi SW 5.8 mph - N/A   Clear
12:15 PM 69.8 °F - 46.4 °F 43% 29.93 in 10.0 mi SSW 10.4 mph 16.1 mph N/A   Clear
12:35 PM 69.8 °F - 46.4 °F 43% 29.93 in 10.0 mi SW 5.8 mph 18.4 mph N/A   Clear
12:55 PM 71.6 °F - 46.4 °F 41% 29.92 in 10.0 mi WSW 11.5 mph 17.3 mph N/A   Clear
1:15 PM 71.6 °F - 46.4 °F 41% 29.92 in 10.0 mi SSW 12.7 mph 18.4 mph N/A   Clear
1:35 PM 71.6 °F - 46.4 °F 41% 29.91 in 10.0 mi SSW 12.7 mph 18.4 mph N/A   Partly Cloudy
1:55 PM 71.6 °F - 44.6 °F 38% 29.90 in 10.0 mi SW 8.1 mph 17.3 mph N/A   Partly Cloudy
2:15 PM 73.4 °F - 46.4 °F 38% 29.90 in 10.0 mi SW 12.7 mph - N/A   Clear
2:35 PM 73.4 °F - 44.6 °F 36% 29.90 in 10.0 mi SSW 13.8 mph 20.7 mph N/A   Partly Cloudy
2:55 PM 71.6 °F - 44.6 °F 38% 29.90 in 10.0 mi SW 8.1 mph 19.6 mph N/A   Partly Cloudy
3:15 PM 71.6 °F - 44.6 °F 38% 29.89 in 10.0 mi SW 8.1 mph 24.2 mph N/A   Clear
3:35 PM 73.4 °F - 42.8 °F 33% 29.89 in 10.0 mi SSW 11.5 mph 17.3 mph N/A   Clear
3:55 PM 73.4 °F - 46.4 °F 38% 29.88 in 10.0 mi SW 11.5 mph 16.1 mph N/A   Clear
4:15 PM 73.4 °F - 46.4 °F 38% 29.88 in 10.0 mi South 11.5 mph 19.6 mph N/A   Clear
4:35 PM 73.4 °F - 44.6 °F 36% 29.87 in 10.0 mi SW 11.5 mph 18.4 mph N/A   Clear
4:55 PM 73.4 °F - 46.4 °F 38% 29.87 in 10.0 mi SSW 11.5 mph 20.7 mph N/A   Clear
5:15 PM 73.4 °F - 44.6 °F 36% 29.87 in 10.0 mi WSW 13.8 mph 17.3 mph N/A   Clear
5:35 PM 73.4 °F - 44.6 °F 36% 29.87 in 10.0 mi SSW 9.2 mph 17.3 mph N/A   Clear
5:55 PM 73.4 °F - 42.8 °F 33% 29.87 in 10.0 mi SSW 10.4 mph - N/A   Clear
6:15 PM 73.4 °F - 44.6 °F 36% 29.87 in 10.0 mi SW 9.2 mph 16.1 mph N/A   Clear
6:55 PM 73.4 °F - 42.8 °F 33% 29.87 in 10.0 mi SW 10.4 mph 16.1 mph N/A   Clear
7:15 PM 71.6 °F - 44.6 °F 38% 29.87 in 10.0 mi WSW 8.1 mph - N/A   Clear
7:35 PM 71.6 °F - 44.6 °F 38% 29.87 in 10.0 mi WSW 5.8 mph - N/A   Clear
7:55 PM 71.6 °F - 42.8 °F 35% 29.87 in 10.0 mi WSW 6.9 mph - N/A   Clear
8:15 PM 69.8 °F - 44.6 °F 40% 29.87 in 10.0 mi WSW 5.8 mph - N/A   Clear
8:35 PM 68.0 °F - 42.8 °F 40% 29.87 in 10.0 mi SW 4.6 mph - N/A   Clear
8:55 PM 66.2 °F - 42.8 °F 43% 29.87 in 10.0 mi Calm Calm - N/A   Clear
9:15 PM 62.6 °F - 41.0 °F 45% 29.87 in 10.0 mi Calm Calm - N/A   Clear
9:35 PM 59.0 °F - 42.8 °F 55% 29.88 in 10.0 mi Calm Calm - N/A   Clear
9:55 PM 57.2 °F - 44.6 °F 63% 29.88 in 10.0 mi Calm Calm - N/A   Clear
10:15 PM 57.2 °F - 44.6 °F 63% 29.88 in 10.0 mi Calm Calm - N/A   Clear
10:35 PM 53.6 °F - 44.6 °F 72% 29.88 in 10.0 mi SW 3.5 mph - N/A   Clear
10:55 PM 53.6 °F - 46.4 °F 77% 29.88 in 10.0 mi Calm Calm - N/A   Clear
11:15 PM 53.6 °F - 44.6 °F 72% 29.88 in 10.0 mi South 4.6 mph - N/A   Clear
11:35 PM 53.6 °F - 44.6 °F 72% 29.88 in 10.0 mi SSW 5.8 mph - N/A   Clear
11:55 PM 53.6 °F - 44.6 °F 72% 29.88 in 10.0 mi SSW 4.6 mph - N/A   Clear